Lotnisko EPSD


Aktualna POGODA z lotniska w Goleniowie (EPSC)

EPSC 161030Z 19005KT 140V230 CAVOK 09/01 Q1024

TAF EPSC 160530Z 1606/1706 19004KT CAVOK BECMG 1615/1618 25010KT BECMG 1700/1702 3000 BR BECMG 1702/1704 0600 FG OVC001

Przed przylotem na lotnisko w Szczecinie-Dąbiu (EPSD) konieczne jest wcześniejsze uzyskanie zgody na lądowanie (PPR)

Znak ICAO: EPSD

Współrzędne lotniska: N532332 E0143802

Współrzędne ATZ: N532228 E0144207

ATZ lotniska: okrąg o promieniu 10km

Granice pionowe ATZ: GND/5500 ft (1676 m) AMSL

Łączność radiowa: Szczecin Radio na częstotliwości 122.2 MHz
Pas trawiasty: RWY 09R – 27L (900m x 50m)

Elewacja: 3 ft (1 m)

Pliki do wglądu lub pobrania:

Plik Opis Rozmiar pliku
pdf EPSD Szczecin Dąbie Dane opisowe
135 KB
pdf EPSD plan lotniska Drogi startowe w użyciu
198 KB
pdf EPSD krąd nadlotniskowy Zasady poruszania się po kręgu
100 KB
pdf Regulamin hangarowania Regulamin użytkowania hangaru Aeroklubu Szczecińskiego
108 KB